owner,sensor,date,latitude,longitude,vertical_datum,wind_speed,wind_to_direction,wind_speed_of_gust,qcFlag 
LOOP,urn:ioos:station:wmo:lopl1:1,2019-03-01T00:50:00Z,28.8850,-90.0250,10.0,5.1,-9999.0,5.6,'11111222,99999999,11111222' 
LOOP,urn:ioos:station:wmo:lopl1:1,2019-03-01T01:55:00Z,28.8850,-90.0250,10.0,4.7,-9999.0,6.0,'11111222,99999999,11111222' 
LOOP,urn:ioos:station:wmo:lopl1:1,2019-03-01T02:55:00Z,28.8850,-90.0250,10.0,4.3,-9999.0,6.6,'11111222,99999999,11111222' 
LOOP,urn:ioos:station:wmo:lopl1:1,2019-03-01T03:55:00Z,28.8850,-90.0250,10.0,0.5,10.0,2.1,'1111122,1111122,1111122' 
LOOP,urn:ioos:station:wmo:lopl1:1,2019-03-01T04:55:00Z,28.8850,-90.0250,10.0,1.0,60.0,2.1,'1111122,1111122,1111122' 
LOOP,urn:ioos:station:wmo:lopl1:1,2019-03-01T05:55:00Z,28.8850,-90.0250,10.0,1.0,60.0,1.5,'1111122,1111122,1111122' 
LOOP,urn:ioos:station:wmo:lopl1:1,2019-03-01T06:55:00Z,28.8850,-90.0250,10.0,2.3,133.0,3.6,'11111222,11111222,11111222' 
LOOP,urn:ioos:station:wmo:lopl1:1,2019-03-01T07:55:00Z,28.8850,-90.0250,10.0,1.0,-9999.0,2.6,'1111122,1111122,1111122' 
LOOP,urn:ioos:station:wmo:lopl1:1,2019-03-01T08:55:00Z,28.8850,-90.0250,10.0,4.1,270.0,8.8,'1111122,1111122,1111122' 
LOOP,urn:ioos:station:wmo:lopl1:1,2019-03-01T09:55:00Z,28.8850,-90.0250,10.0,2.6,300.0,3.6,'1111122,1111122,1111122' 
LOOP,urn:ioos:station:wmo:lopl1:1,2019-03-01T10:55:00Z,28.8850,-90.0250,10.0,1.5,320.0,2.1,'1111122,1111122,1111122' 
LOOP,urn:ioos:station:wmo:lopl1:1,2019-03-01T11:55:00Z,28.8850,-90.0250,10.0,1.5,90.0,2.1,'1111122,1111122,1111122' 
LOOP,urn:ioos:station:wmo:lopl1:1,2019-03-01T13:00:00Z,28.8850,-90.0250,10.0,2.1,160.0,2.6,'1111122,1111122,1111122' 
LOOP,urn:ioos:station:wmo:lopl1:1,2019-03-01T14:00:00Z,28.8850,-90.0250,10.0,3.1,150.0,4.1,'1111122,1111122,1111122' 
LOOP,urn:ioos:station:wmo:lopl1:1,2019-03-01T15:00:00Z,28.8850,-90.0250,10.0,3.6,-9999.0,5.7,'1111122,1111122,1111122' 
LOOP,urn:ioos:station:wmo:lopl1:1,2019-03-01T16:00:00Z,28.8850,-90.0250,10.0,4.6,-9999.0,4.6,'1111122,1111122,1111122' 
LOOP,urn:ioos:station:wmo:lopl1:1,2019-03-01T17:00:00Z,28.8850,-90.0250,10.0,1.5,-9999.0,2.6,'1111122,1111122,1111122' 
LOOP,urn:ioos:station:wmo:lopl1:1,2019-03-01T18:00:00Z,28.8850,-90.0250,10.0,2.1,170.0,3.6,'1111122,1111122,1111122' 
LOOP,urn:ioos:station:wmo:lopl1:1,2019-03-01T19:05:00Z,28.8850,-90.0250,10.0,2.6,170.0,4.1,'1111122,1111122,1111122' 
LOOP,urn:ioos:station:wmo:lopl1:1,2019-03-01T20:05:00Z,28.8850,-90.0250,10.0,2.1,150.0,2.6,'1111122,1111122,1111122' 
LOOP,urn:ioos:station:wmo:lopl1:1,2019-03-01T21:05:00Z,28.8850,-90.0250,10.0,3.6,160.0,4.1,'1111122,1111122,1111122' 
LOOP,urn:ioos:station:wmo:lopl1:1,2019-03-01T22:05:00Z,28.8850,-90.0250,10.0,2.6,160.0,3.1,'1111122,1111122,1111122' 
LOOP,urn:ioos:station:wmo:lopl1:1,2019-03-01T23:05:00Z,28.8850,-90.0250,10.0,3.1,120.0,3.1,'1111122,1111122,1111122' 
LOOP,urn:ioos:station:wmo:lopl1:1,2019-03-02T00:05:00Z,28.8850,-90.0250,10.0,3.6,90.0,4.1,'1111122,1111122,1111122' 
LOOP,urn:ioos:station:wmo:lopl1:1,2019-03-02T01:05:00Z,28.8850,-90.0250,10.0,3.6,90.0,4.1,'1111122,1111122,1111122' 
LOOP,urn:ioos:station:wmo:lopl1:1,2019-03-02T02:05:00Z,28.8850,-90.0250,10.0,3.1,30.0,5.1,'1111122,1111122,1111122' 
LOOP,urn:ioos:station:wmo:lopl1:1,2019-03-02T03:05:00Z,28.8850,-90.0250,10.0,3.1,110.0,3.6,'1111122,1111122,1111122' 
LOOP,urn:ioos:station:wmo:lopl1:1,2019-03-02T04:05:00Z,28.8850,-90.0250,10.0,4.1,160.0,5.7,'1111122,1111122,1111122' 
LOOP,urn:ioos:station:wmo:lopl1:1,2019-03-02T05:05:00Z,28.8850,-90.0250,10.0,3.6,180.0,5.7,'1111122,1111122,1111122' 
LOOP,urn:ioos:station:wmo:lopl1:1,2019-03-02T06:05:00Z,28.8850,-90.0250,10.0,4.1,-9999.0,5.7,'1111122,1111122,1111122' 
LOOP,urn:ioos:station:wmo:lopl1:1,2019-03-02T07:05:00Z,28.8850,-90.0250,10.0,2.6,-9999.0,4.1,'1111122,1111122,1111122' 
LOOP,urn:ioos:station:wmo:lopl1:1,2019-03-02T08:05:00Z,28.8850,-90.0250,10.0,5.7,-9999.0,6.7,'1111122,1111122,1111122' 
LOOP,urn:ioos:station:wmo:lopl1:1,2019-03-02T09:05:00Z,28.8850,-90.0250,10.0,5.7,-9999.0,5.7,'1111122,1111122,1111122' 
LOOP,urn:ioos:station:wmo:lopl1:1,2019-03-02T10:05:00Z,28.8850,-90.0250,10.0,6.7,-9999.0,7.2,'1111122,1111122,1111122' 
LOOP,urn:ioos:station:wmo:lopl1:1,2019-03-02T11:10:00Z,28.8850,-90.0250,10.0,2.1,270.0,4.1,'1111122,1111122,1111122' 
LOOP,urn:ioos:station:wmo:lopl1:1,2019-03-02T12:10:00Z,28.8850,-90.0250,10.0,2.6,280.0,3.6,'1111122,1111122,1111122' 
LOOP,urn:ioos:station:wmo:lopl1:1,2019-03-02T13:10:00Z,28.8850,-90.0250,10.0,3.1,300.0,3.6,'1111122,1111122,1111122' 
LOOP,urn:ioos:station:wmo:lopl1:1,2019-03-02T14:10:00Z,28.8850,-90.0250,10.0,2.6,310.0,3.1,'1111122,1111122,1111122' 
LOOP,urn:ioos:station:wmo:lopl1:1,2019-03-02T15:10:00Z,28.8850,-90.0250,10.0,1.0,320.0,3.1,'1111122,1111122,1111122' 
LOOP,urn:ioos:station:wmo:lopl1:1,2019-03-02T16:10:00Z,28.8850,-90.0250,10.0,0.0,-9999.0,1.0,'1114422,1111122,1111122' 
LOOP,urn:ioos:station:wmo:lopl1:1,2019-03-02T17:10:00Z,28.8850,-90.0250,10.0,0.5,140.0,1.0,'1111122,1111122,1111122' 
LOOP,urn:ioos:station:wmo:lopl1:1,2019-03-02T18:10:00Z,28.8850,-90.0250,10.0,2.6,170.0,4.1,'1111122,1111122,1111122' 
LOOP,urn:ioos:station:wmo:lopl1:1,2019-03-02T19:10:00Z,28.8850,-90.0250,10.0,1.5,20.0,2.1,'1111122,1111122,1111122' 
LOOP,urn:ioos:station:wmo:lopl1:1,2019-03-02T20:10:00Z,28.8850,-90.0250,10.0,2.6,30.0,3.1,'1111122,1111122,1111122' 
LOOP,urn:ioos:station:wmo:lopl1:1,2019-03-02T21:10:00Z,28.8850,-90.0250,10.0,3.1,20.0,3.6,'1111122,1111122,1111122' 
LOOP,urn:ioos:station:wmo:lopl1:1,2019-03-02T22:10:00Z,28.8850,-90.0250,10.0,2.1,30.0,2.1,'1111122,1111122,1111122' 
LOOP,urn:ioos:station:wmo:lopl1:1,2019-03-02T23:15:00Z,28.8850,-90.0250,10.0,1.5,100.0,2.1,'1111122,1111122,1111122' 
LOOP,urn:ioos:station:wmo:lopl1:1,2019-03-03T00:15:00Z,28.8850,-90.0250,10.0,3.1,150.0,3.1,'1111122,1111122,1111122' 
LOOP,urn:ioos:station:wmo:lopl1:1,2019-03-03T01:15:00Z,28.8850,-90.0250,10.0,3.1,80.0,3.1,'1111122,1111122,1111122' 
LOOP,urn:ioos:station:wmo:lopl1:1,2019-03-03T02:15:00Z,28.8850,-90.0250,10.0,4.1,70.0,4.6,'1111122,1111122,1111122' 
LOOP,urn:ioos:station:wmo:lopl1:1,2019-03-03T03:15:00Z,28.8850,-90.0250,10.0,4.6,110.0,5.7,'1111122,1111122,1111122' 
LOOP,urn:ioos:station:wmo:lopl1:1,2019-03-03T04:15:00Z,28.8850,-90.0250,10.0,4.6,110.0,4.6,'1111122,1111122,1111122' 
LOOP,urn:ioos:station:wmo:lopl1:1,2019-03-03T05:15:00Z,28.8850,-90.0250,10.0,5.1,130.0,5.7,'1111122,1111122,1111122' 
LOOP,urn:ioos:station:wmo:lopl1:1,2019-03-03T06:15:00Z,28.8850,-90.0250,10.0,5.1,130.0,5.7,'1111122,1111122,1111122' 
LOOP,urn:ioos:station:wmo:lopl1:1,2019-03-03T07:15:00Z,28.8850,-90.0250,10.0,7.2,150.0,8.2,'1111122,1111122,1111122' 
LOOP,urn:ioos:station:wmo:lopl1:1,2019-03-03T08:15:00Z,28.8850,-90.0250,10.0,6.7,150.0,7.7,'1111122,1111122,1111122' 
LOOP,urn:ioos:station:wmo:lopl1:1,2019-03-03T09:15:00Z,28.8850,-90.0250,10.0,5.1,160.0,6.2,'1111122,1111122,1111122' 
LOOP,urn:ioos:station:wmo:lopl1:1,2019-03-03T10:15:00Z,28.8850,-90.0250,10.0,3.1,-9999.0,4.6,'1111122,1111122,1111122' 
LOOP,urn:ioos:station:wmo:lopl1:1,2019-03-03T11:15:00Z,28.8850,-90.0250,10.0,4.6,-9999.0,7.2,'1111122,1111122,1111122' 
LOOP,urn:ioos:station:wmo:lopl1:1,2019-03-03T12:20:00Z,28.8850,-90.0250,10.0,6.7,-9999.0,8.2,'1111122,1111122,1111122' 
LOOP,urn:ioos:station:wmo:lopl1:1,2019-03-03T13:20:00Z,28.8850,-90.0250,10.0,3.6,-9999.0,5.1,'1111122,1111122,1111122' 
LOOP,urn:ioos:station:wmo:lopl1:1,2019-03-03T14:20:00Z,28.8850,-90.0250,10.0,6.2,-9999.0,7.7,'1111122,1111122,1111122' 
LOOP,urn:ioos:station:wmo:lopl1:1,2019-03-03T15:20:00Z,28.8850,-90.0250,10.0,6.7,-9999.0,7.2,'1111122,1111122,1111122' 
LOOP,urn:ioos:station:wmo:lopl1:1,2019-03-03T16:20:00Z,28.8850,-90.0250,10.0,7.7,-9999.0,9.3,'1111122,1111122,1111122' 
LOOP,urn:ioos:station:wmo:lopl1:1,2019-03-03T17:20:00Z,28.8850,-90.0250,10.0,10.3,-9999.0,11.3,'1111122,1111122,1111122' 
LOOP,urn:ioos:station:wmo:lopl1:1,2019-03-03T18:20:00Z,28.8850,-90.0250,10.0,10.3,-9999.0,11.8,'1111122,1111122,1111122' 
LOOP,urn:ioos:station:wmo:lopl1:1,2019-03-03T19:20:00Z,28.8850,-90.0250,10.0,11.3,-9999.0,11.8,'1111122,1111122,1111122' 
LOOP,urn:ioos:station:wmo:lopl1:1,2019-03-03T20:20:00Z,28.8850,-90.0250,10.0,9.8,-9999.0,10.3,'1111122,1111122,1111122' 
LOOP,urn:ioos:station:wmo:lopl1:1,2019-03-03T21:20:00Z,28.8850,-90.0250,10.0,3.6,270.0,5.1,'1111122,1111122,1111122' 
LOOP,urn:ioos:station:wmo:lopl1:1,2019-03-03T22:25:00Z,28.8850,-90.0250,10.0,3.6,280.0,5.7,'1111122,1111122,1111122' 
LOOP,urn:ioos:station:wmo:lopl1:1,2019-03-03T23:25:00Z,28.8850,-90.0250,10.0,5.7,300.0,7.2,'1111122,1111122,1111122' 
LOOP,urn:ioos:station:wmo:lopl1:1,2019-03-04T00:25:00Z,28.8850,-90.0250,10.0,10.3,10.0,12.4,'1111122,1111122,1111122' 
LOOP,urn:ioos:station:wmo:lopl1:1,2019-03-04T01:25:00Z,28.8850,-90.0250,10.0,8.8,10.0,10.8,'1111122,1111122,1111122' 
LOOP,urn:ioos:station:wmo:lopl1:1,2019-03-04T02:25:00Z,28.8850,-90.0250,10.0,9.3,10.0,11.3,'1111122,1111122,1111122' 
LOOP,urn:ioos:station:wmo:lopl1:1,2019-03-04T03:25:00Z,28.8850,-90.0250,10.0,10.3,10.0,12.9,'1111122,1111122,1111122' 
LOOP,urn:ioos:station:wmo:lopl1:1,2019-03-04T04:25:00Z,28.8850,-90.0250,10.0,11.8,20.0,13.9,'1111122,1111122,1111122' 
LOOP,urn:ioos:station:wmo:lopl1:1,2019-03-04T05:25:00Z,28.8850,-90.0250,10.0,11.3,20.0,13.9,'1111122,1111122,1111122' 
LOOP,urn:ioos:station:wmo:lopl1:1,2019-03-04T06:25:00Z,28.8850,-90.0250,10.0,10.8,20.0,12.9,'1111122,1111122,1111122' 
LOOP,urn:ioos:station:wmo:lopl1:1,2019-03-04T07:25:00Z,28.8850,-90.0250,10.0,11.3,360.0,14.4,'1111122,1111122,1111122' 
LOOP,urn:ioos:station:wmo:lopl1:1,2019-03-04T08:25:00Z,28.8850,-90.0250,10.0,11.3,20.0,13.9,'1111122,1111122,1111122' 
LOOP,urn:ioos:station:wmo:lopl1:1,2019-03-04T09:25:00Z,28.8850,-90.0250,10.0,10.3,30.0,13.4,'1111122,1111122,1111122' 
LOOP,urn:ioos:station:wmo:lopl1:1,2019-03-04T10:25:00Z,28.8850,-90.0250,10.0,11.8,10.0,14.4,'1111122,1111122,1111122' 
LOOP,urn:ioos:station:wmo:lopl1:1,2019-03-04T11:30:00Z,28.8850,-90.0250,10.0,9.8,20.0,13.4,'1111122,1111122,1111122' 
LOOP,urn:ioos:station:wmo:lopl1:1,2019-03-04T12:30:00Z,28.8850,-90.0250,10.0,9.3,30.0,12.9,'1111122,1111122,1111122' 
LOOP,urn:ioos:station:wmo:lopl1:1,2019-03-04T13:30:00Z,28.8850,-90.0250,10.0,9.8,20.0,12.4,'1111122,1111122,1111122' 
LOOP,urn:ioos:station:wmo:lopl1:1,2019-03-04T14:30:00Z,28.8850,-90.0250,10.0,9.8,20.0,12.4,'1111122,1111122,1111122' 
LOOP,urn:ioos:station:wmo:lopl1:1,2019-03-04T15:30:00Z,28.8850,-90.0250,10.0,10.8,20.0,14.4,'1111122,1111122,1111122' 
LOOP,urn:ioos:station:wmo:lopl1:1,2019-03-04T16:30:00Z,28.8850,-90.0250,10.0,10.3,10.0,11.8,'1111122,1111122,1111122' 
LOOP,urn:ioos:station:wmo:lopl1:1,2019-03-04T17:35:00Z,28.8850,-90.0250,10.0,9.8,20.0,12.4,'1111122,1111122,1111122' 
LOOP,urn:ioos:station:wmo:lopl1:1,2019-03-04T18:35:00Z,28.8850,-90.0250,10.0,9.8,30.0,12.4,'1111122,1111122,1111122' 
LOOP,urn:ioos:station:wmo:lopl1:1,2019-03-04T19:35:00Z,28.8850,-90.0250,10.0,8.8,20.0,11.3,'1111122,1111122,1111122' 
LOOP,urn:ioos:station:wmo:lopl1:1,2019-03-04T20:35:00Z,28.8850,-90.0250,10.0,9.8,30.0,12.4,'1111122,1111122,1111122' 
LOOP,urn:ioos:station:wmo:lopl1:1,2019-03-04T21:35:00Z,28.8850,-90.0250,10.0,7.7,20.0,9.3,'1111122,1111122,1111122' 
LOOP,urn:ioos:station:wmo:lopl1:1,2019-03-04T22:35:00Z,28.8850,-90.0250,10.0,7.2,30.0,9.3,'1111122,1111122,1111122' 
LOOP,urn:ioos:station:wmo:lopl1:1,2019-03-04T23:35:00Z,28.8850,-90.0250,10.0,7.7,10.0,10.3,'1111122,1111122,1111122' 
LOOP,urn:ioos:station:wmo:lopl1:1,2019-03-05T00:35:00Z,28.8850,-90.0250,10.0,4.1,10.0,6.2,'1111122,1111122,1111122' 
LOOP,urn:ioos:station:wmo:lopl1:1,2019-03-05T01:35:00Z,28.8850,-90.0250,10.0,5.1,20.0,8.2,'1111122,1111122,1111122' 
LOOP,urn:ioos:station:wmo:lopl1:1,2019-03-05T02:35:00Z,28.8850,-90.0250,10.0,8.2,10.0,11.3,'1111122,1111122,1111122' 
LOOP,urn:ioos:station:wmo:lopl1:1,2019-03-05T03:35:00Z,28.8850,-90.0250,10.0,5.7,360.0,9.8,'1111122,1111122,1111122' 
LOOP,urn:ioos:station:wmo:lopl1:1,2019-03-05T04:35:00Z,28.8850,-90.0250,10.0,8.2,10.0,10.3,'1111122,1111122,1111122' 
LOOP,urn:ioos:station:wmo:lopl1:1,2019-03-05T05:35:00Z,28.8850,-90.0250,10.0,7.2,10.0,9.8,'1111122,1111122,1111122' 
LOOP,urn:ioos:station:wmo:lopl1:1,2019-03-05T06:35:00Z,28.8850,-90.0250,10.0,8.8,20.0,11.3,'1111122,1111122,1111122' 
LOOP,urn:ioos:station:wmo:lopl1:1,2019-03-05T07:35:00Z,28.8850,-90.0250,10.0,9.3,20.0,11.8,'1111122,1111122,1111122' 
LOOP,urn:ioos:station:wmo:lopl1:1,2019-03-05T08:35:00Z,28.8850,-90.0250,10.0,9.8,10.0,11.8,'1111122,1111122,1111122' 
LOOP,urn:ioos:station:wmo:lopl1:1,2019-03-05T09:40:00Z,28.8850,-90.0250,10.0,6.2,360.0,9.8,'1111122,1111122,1111122' 
LOOP,urn:ioos:station:wmo:lopl1:1,2019-03-05T10:40:00Z,28.8850,-90.0250,10.0,6.2,360.0,9.8,'1111122,1111122,1111122' 
LOOP,urn:ioos:station:wmo:lopl1:1,2019-03-05T11:40:00Z,28.8850,-90.0250,10.0,9.8,30.0,12.9,'1111122,1111122,1111122' 
LOOP,urn:ioos:station:wmo:lopl1:1,2019-03-05T12:40:00Z,28.8850,-90.0250,10.0,9.8,20.0,11.8,'1111122,1111122,1111122' 
LOOP,urn:ioos:station:wmo:lopl1:1,2019-03-05T13:40:00Z,28.8850,-90.0250,10.0,9.8,20.0,13.4,'1111122,1111122,1111122' 
LOOP,urn:ioos:station:wmo:lopl1:1,2019-03-05T14:40:00Z,28.8850,-90.0250,10.0,9.8,10.0,12.9,'1111122,1111122,1111122' 
LOOP,urn:ioos:station:wmo:lopl1:1,2019-03-05T15:40:00Z,28.8850,-90.0250,10.0,9.3,10.0,11.3,'1111122,1111122,1111122' 
LOOP,urn:ioos:station:wmo:lopl1:1,2019-03-05T16:40:00Z,28.8850,-90.0250,10.0,8.2,360.0,11.8,'1111122,1111122,1111122' 
LOOP,urn:ioos:station:wmo:lopl1:1,2019-03-05T17:40:00Z,28.8850,-90.0250,10.0,8.2,10.0,12.9,'1111122,1111122,1111122' 
LOOP,urn:ioos:station:wmo:lopl1:1,2019-03-05T18:40:00Z,28.8850,-90.0250,10.0,5.1,350.0,8.8,'1111122,1111122,1111122' 
LOOP,urn:ioos:station:wmo:lopl1:1,2019-03-05T19:40:00Z,28.8850,-90.0250,10.0,6.2,10.0,9.3,'1111122,1111122,1111122' 
LOOP,urn:ioos:station:wmo:lopl1:1,2019-03-05T20:40:00Z,28.8850,-90.0250,10.0,4.6,320.0,9.8,'1111122,1111122,1111122' 
LOOP,urn:ioos:station:wmo:lopl1:1,2019-03-05T21:40:00Z,28.8850,-90.0250,10.0,7.1,0.0,10.7,'11111222,11111222,11111222' 
LOOP,urn:ioos:station:wmo:lopl1:1,2019-03-05T22:40:00Z,28.8850,-90.0250,10.0,6.7,360.0,10.3,'1111122,1111122,1111122' 
LOOP,urn:ioos:station:wmo:lopl1:1,2019-03-05T23:45:00Z,28.8850,-90.0250,10.0,7.7,360.0,11.8,'1111122,1111122,1111122' 
LOOP,urn:ioos:station:wmo:lopl1:1,2019-03-06T00:45:00Z,28.8850,-90.0250,10.0,9.8,20.0,12.4,'1111122,1111122,1111122' 
LOOP,urn:ioos:station:wmo:lopl1:1,2019-03-06T01:45:00Z,28.8850,-90.0250,10.0,10.3,20.0,13.9,'1111122,1111122,1111122' 
LOOP,urn:ioos:station:wmo:lopl1:1,2019-03-06T02:45:00Z,28.8850,-90.0250,10.0,10.8,20.0,13.4,'1111122,1111122,1111122' 
LOOP,urn:ioos:station:wmo:lopl1:1,2019-03-06T03:45:00Z,28.8850,-90.0250,10.0,11.8,10.0,16.5,'1111122,1111122,1111122' 
LOOP,urn:ioos:station:wmo:lopl1:1,2019-03-06T04:45:00Z,28.8850,-90.0250,10.0,9.3,10.0,12.4,'1111122,1111122,1111122' 
LOOP,urn:ioos:station:wmo:lopl1:1,2019-03-06T05:45:00Z,28.8850,-90.0250,10.0,8.8,20.0,11.3,'1111122,1111122,1111122' 
LOOP,urn:ioos:station:wmo:lopl1:1,2019-03-06T06:45:00Z,28.8850,-90.0250,10.0,8.2,350.0,10.8,'1111122,1111122,1111122' 
LOOP,urn:ioos:station:wmo:lopl1:1,2019-03-06T07:45:00Z,28.8850,-90.0250,10.0,8.2,20.0,11.3,'1111122,1111122,1111122' 
LOOP,urn:ioos:station:wmo:lopl1:1,2019-03-06T08:45:00Z,28.8850,-90.0250,10.0,8.8,20.0,10.8,'1111122,1111122,1111122' 
LOOP,urn:ioos:station:wmo:lopl1:1,2019-03-06T09:45:00Z,28.8850,-90.0250,10.0,9.8,20.0,12.4,'1111122,1111122,1111122' 
LOOP,urn:ioos:station:wmo:lopl1:1,2019-03-06T10:45:00Z,28.8850,-90.0250,10.0,11.8,30.0,14.4,'1111122,1111122,1111122' 
LOOP,urn:ioos:station:wmo:lopl1:1,2019-03-06T11:50:00Z,28.8850,-90.0250,10.0,11.8,30.0,14.9,'1111122,1111122,1111122' 
LOOP,urn:ioos:station:wmo:lopl1:1,2019-03-06T12:50:00Z,28.8850,-90.0250,10.0,11.8,36.0,14.2,'11111222,11111222,11111222' 
LOOP,urn:ioos:station:wmo:lopl1:1,2019-03-06T13:50:00Z,28.8850,-90.0250,10.0,11.8,40.0,13.9,'1111122,1111122,1111122' 
LOOP,urn:ioos:station:wmo:lopl1:1,2019-03-06T14:50:00Z,28.8850,-90.0250,10.0,10.3,40.0,13.4,'1111122,1111122,1111122' 
LOOP,urn:ioos:station:wmo:lopl1:1,2019-03-06T15:50:00Z,28.8850,-90.0250,10.0,9.8,40.0,12.4,'1111122,1111122,1111122' 
LOOP,urn:ioos:station:wmo:lopl1:1,2019-03-06T16:50:00Z,28.8850,-90.0250,10.0,8.8,60.0,11.8,'1111122,1111122,1111122' 
LOOP,urn:ioos:station:wmo:lopl1:1,2019-03-06T17:50:00Z,28.8850,-90.0250,10.0,8.2,60.0,10.3,'1111122,1111122,1111122' 
LOOP,urn:ioos:station:wmo:lopl1:1,2019-03-06T18:50:00Z,28.8850,-90.0250,10.0,7.7,70.0,9.8,'1111122,1111122,1111122' 
LOOP,urn:ioos:station:wmo:lopl1:1,2019-03-06T19:50:00Z,28.8850,-90.0250,10.0,5.1,70.0,6.7,'1111122,1111122,1111122' 
LOOP,urn:ioos:station:wmo:lopl1:1,2019-03-06T20:50:00Z,28.8850,-90.0250,10.0,5.1,70.0,6.7,'1111122,1111122,1111122' 
LOOP,urn:ioos:station:wmo:lopl1:1,2019-03-06T21:50:00Z,28.8850,-90.0250,10.0,5.7,80.0,6.7,'1111122,1111122,1111122' 
LOOP,urn:ioos:station:wmo:lopl1:1,2019-03-06T22:50:00Z,28.8850,-90.0250,10.0,5.1,70.0,6.7,'1111122,1111122,1111122' 
LOOP,urn:ioos:station:wmo:lopl1:1,2019-03-06T23:55:00Z,28.8850,-90.0250,10.0,5.1,60.0,7.2,'1111122,1111122,1111122' 
LOOP,urn:ioos:station:wmo:lopl1:1,2019-03-07T00:55:00Z,28.8850,-90.0250,10.0,5.1,60.0,7.2,'1111122,1111122,1111122' 
LOOP,urn:ioos:station:wmo:lopl1:1,2019-03-07T01:55:00Z,28.8850,-90.0250,10.0,4.6,80.0,6.2,'1111122,1111122,1111122' 
LOOP,urn:ioos:station:wmo:lopl1:1,2019-03-07T03:00:00Z,28.8850,-90.0250,10.0,5.1,80.0,6.2,'1111122,1111122,1111122' 
LOOP,urn:ioos:station:wmo:lopl1:1,2019-03-07T04:00:00Z,28.8850,-90.0250,10.0,4.6,90.0,5.7,'1111122,1111122,1111122' 
LOOP,urn:ioos:station:wmo:lopl1:1,2019-03-07T05:00:00Z,28.8850,-90.0250,10.0,5.1,120.0,6.2,'1111122,1111122,1111122' 
LOOP,urn:ioos:station:wmo:lopl1:1,2019-03-07T06:00:00Z,28.8850,-90.0250,10.0,4.6,110.0,5.7,'1111122,1111122,1111122' 
LOOP,urn:ioos:station:wmo:lopl1:1,2019-03-07T07:00:00Z,28.8850,-90.0250,10.0,3.6,120.0,5.1,'1111122,1111122,1111122' 
LOOP,urn:ioos:station:wmo:lopl1:1,2019-03-07T08:00:00Z,28.8850,-90.0250,10.0,4.6,90.0,5.7,'1111122,1111122,1111122' 
LOOP,urn:ioos:station:wmo:lopl1:1,2019-03-07T09:00:00Z,28.8850,-90.0250,10.0,5.7,80.0,6.2,'1111122,1111122,1111122' 
LOOP,urn:ioos:station:wmo:lopl1:1,2019-03-07T10:00:00Z,28.8850,-90.0250,10.0,4.6,70.0,5.7,'1111122,1111122,1111122' 
LOOP,urn:ioos:station:wmo:lopl1:1,2019-03-07T11:00:00Z,28.8850,-90.0250,10.0,4.6,60.0,5.7,'1111122,1111122,1111122' 
LOOP,urn:ioos:station:wmo:lopl1:1,2019-03-07T12:00:00Z,28.8850,-90.0250,10.0,6.2,70.0,7.2,'1111122,1111122,1111122' 
LOOP,urn:ioos:station:wmo:lopl1:1,2019-03-07T13:00:00Z,28.8850,-90.0250,10.0,6.7,70.0,7.7,'1111122,1111122,1111122' 
LOOP,urn:ioos:station:wmo:lopl1:1,2019-03-07T14:00:00Z,28.8850,-90.0250,10.0,7.2,70.0,8.8,'1111122,1111122,1111122' 
LOOP,urn:ioos:station:wmo:lopl1:1,2019-03-07T15:00:00Z,28.8850,-90.0250,10.0,8.2,80.0,9.8,'1111122,1111122,1111122' 
LOOP,urn:ioos:station:wmo:lopl1:1,2019-03-07T16:00:00Z,28.8850,-90.0250,10.0,7.7,80.0,8.8,'1111122,1111122,1111122' 
LOOP,urn:ioos:station:wmo:lopl1:1,2019-03-07T17:00:00Z,28.8850,-90.0250,10.0,8.2,80.0,9.3,'1111122,1111122,1111122' 
LOOP,urn:ioos:station:wmo:lopl1:1,2019-03-07T18:00:00Z,28.8850,-90.0250,10.0,8.2,90.0,9.3,'1111122,1111122,1111122' 
LOOP,urn:ioos:station:wmo:lopl1:1,2019-03-07T19:00:00Z,28.8850,-90.0250,10.0,7.7,80.0,8.8,'1111122,1111122,1111122' 
LOOP,urn:ioos:station:wmo:lopl1:1,2019-03-07T20:05:00Z,28.8850,-90.0250,10.0,7.7,90.0,8.2,'1111122,1111122,1111122' 
LOOP,urn:ioos:station:wmo:lopl1:1,2019-03-07T21:05:00Z,28.8850,-90.0250,10.0,6.2,90.0,7.2,'1111122,1111122,1111122' 
LOOP,urn:ioos:station:wmo:lopl1:1,2019-03-07T22:05:00Z,28.8850,-90.0250,10.0,6.7,90.0,7.2,'1111122,1111122,1111122' 
LOOP,urn:ioos:station:wmo:lopl1:1,2019-03-07T23:10:00Z,28.8850,-90.0250,10.0,6.2,120.0,6.7,'1111122,1111122,1111122' 
LOOP,urn:ioos:station:wmo:lopl1:1,2019-03-08T00:10:00Z,28.8850,-90.0250,10.0,5.7,130.0,6.2,'1111122,1111122,1111122' 
LOOP,urn:ioos:station:wmo:lopl1:1,2019-03-08T01:10:00Z,28.8850,-90.0250,10.0,8.8,150.0,8.8,'1111122,1111122,1111122' 
LOOP,urn:ioos:station:wmo:lopl1:1,2019-03-08T02:10:00Z,28.8850,-90.0250,10.0,6.2,150.0,6.7,'1111122,1111122,1111122' 
LOOP,urn:ioos:station:wmo:lopl1:1,2019-03-08T03:10:00Z,28.8850,-90.0250,10.0,7.2,160.0,7.7,'1111122,1111122,1111122' 
LOOP,urn:ioos:station:wmo:lopl1:1,2019-03-08T04:10:00Z,28.8850,-90.0250,10.0,10.3,160.0,10.8,'1111122,1111122,1111122' 
LOOP,urn:ioos:station:wmo:lopl1:1,2019-03-08T05:10:00Z,28.8850,-90.0250,10.0,8.8,170.0,11.8,'1111122,1111122,1111122' 
LOOP,urn:ioos:station:wmo:lopl1:1,2019-03-08T06:10:00Z,28.8850,-90.0250,10.0,6.2,-9999.0,9.3,'1111122,1111122,1111122' 
LOOP,urn:ioos:station:wmo:lopl1:1,2019-03-08T07:10:00Z,28.8850,-90.0250,10.0,6.2,-9999.0,9.8,'1111122,1111122,1111122' 
LOOP,urn:ioos:station:wmo:lopl1:1,2019-03-08T08:10:00Z,28.8850,-90.0250,10.0,6.2,180.0,9.3,'1111122,1111122,1111122' 
LOOP,urn:ioos:station:wmo:lopl1:1,2019-03-08T09:10:00Z,28.8850,-90.0250,10.0,5.7,-9999.0,7.7,'1111122,1111122,1111122' 
LOOP,urn:ioos:station:wmo:lopl1:1,2019-03-08T10:10:00Z,28.8850,-90.0250,10.0,7.7,-9999.0,10.8,'1111122,1111122,1111122' 
LOOP,urn:ioos:station:wmo:lopl1:1,2019-03-08T11:10:00Z,28.8850,-90.0250,10.0,6.7,-9999.0,8.8,'1111122,1111122,1111122' 
LOOP,urn:ioos:station:wmo:lopl1:1,2019-03-08T12:10:00Z,28.8850,-90.0250,10.0,5.1,-9999.0,7.2,'1111122,1111122,1111122' 
LOOP,urn:ioos:station:wmo:lopl1:1,2019-03-08T13:10:00Z,28.8850,-90.0250,10.0,5.1,-9999.0,6.2,'1111122,1111122,1111122' 
LOOP,urn:ioos:station:wmo:lopl1:1,2019-03-08T14:10:00Z,28.8850,-90.0250,10.0,4.2,-9999.0,5.9,'11111222,99999999,11111222' 
LOOP,urn:ioos:station:wmo:lopl1:1,2019-03-08T15:10:00Z,28.8850,-90.0250,10.0,3.1,-9999.0,5.1,'1111122,1111122,1111122' 
LOOP,urn:ioos:station:wmo:lopl1:1,2019-03-08T16:10:00Z,28.8850,-90.0250,10.0,4.6,-9999.0,7.2,'1111122,1111122,1111122' 
LOOP,urn:ioos:station:wmo:lopl1:1,2019-03-08T17:15:00Z,28.8850,-90.0250,10.0,5.1,-9999.0,7.7,'1111122,1111122,1111122' 
LOOP,urn:ioos:station:wmo:lopl1:1,2019-03-08T18:15:00Z,28.8850,-90.0250,10.0,5.1,-9999.0,7.2,'1111122,1111122,1111122' 
LOOP,urn:ioos:station:wmo:lopl1:1,2019-03-08T19:15:00Z,28.8850,-90.0250,10.0,4.1,-9999.0,6.2,'1111122,1111122,1111122' 
LOOP,urn:ioos:station:wmo:lopl1:1,2019-03-08T20:15:00Z,28.8850,-90.0250,10.0,3.1,170.0,5.7,'1111122,1111122,1111122' 
LOOP,urn:ioos:station:wmo:lopl1:1,2019-03-08T21:15:00Z,28.8850,-90.0250,10.0,3.6,170.0,6.2,'1111122,1111122,1111122' 
LOOP,urn:ioos:station:wmo:lopl1:1,2019-03-08T22:15:00Z,28.8850,-90.0250,10.0,3.6,160.0,6.2,'1111122,1111122,1111122' 
LOOP,urn:ioos:station:wmo:lopl1:1,2019-03-08T23:15:00Z,28.8850,-90.0250,10.0,5.1,170.0,6.2,'1111122,1111122,1111122' 
LOOP,urn:ioos:station:wmo:lopl1:1,2019-03-09T00:15:00Z,28.8850,-90.0250,10.0,4.6,160.0,5.1,'1111122,1111122,1111122' 
LOOP,urn:ioos:station:wmo:lopl1:1,2019-03-09T01:15:00Z,28.8850,-90.0250,10.0,5.1,160.0,5.1,'1111122,1111122,1111122' 
LOOP,urn:ioos:station:wmo:lopl1:1,2019-03-09T02:15:00Z,28.8850,-90.0250,10.0,6.2,160.0,6.2,'1111122,1111122,1111122' 
LOOP,urn:ioos:station:wmo:lopl1:1,2019-03-09T03:15:00Z,28.8850,-90.0250,10.0,5.7,160.0,6.2,'1111122,1111122,1111122' 
LOOP,urn:ioos:station:wmo:lopl1:1,2019-03-09T04:15:00Z,28.8850,-90.0250,10.0,6.7,160.0,6.7,'1111122,1111122,1111122' 
LOOP,urn:ioos:station:wmo:lopl1:1,2019-03-09T05:15:00Z,28.8850,-90.0250,10.0,7.2,160.0,7.7,'1111122,1111122,1111122' 
LOOP,urn:ioos:station:wmo:lopl1:1,2019-03-09T06:20:00Z,28.8850,-90.0250,10.0,7.7,170.0,8.8,'1111122,1111122,1111122' 
LOOP,urn:ioos:station:wmo:lopl1:1,2019-03-09T07:20:00Z,28.8850,-90.0250,10.0,9.3,170.0,9.8,'1111122,1111122,1111122' 
LOOP,urn:ioos:station:wmo:lopl1:1,2019-03-09T08:20:00Z,28.8850,-90.0250,10.0,8.2,170.0,9.3,'1111122,1111122,1111122' 
LOOP,urn:ioos:station:wmo:lopl1:1,2019-03-09T09:20:00Z,28.8850,-90.0250,10.0,5.7,-9999.0,8.8,'1111122,1111122,1111122' 
LOOP,urn:ioos:station:wmo:lopl1:1,2019-03-09T10:20:00Z,28.8850,-90.0250,10.0,9.3,170.0,9.8,'1111122,1111122,1111122' 